Temperature
13 12 12 12 12 12 12 12 12 12 12 12 12 12 11 11 11 10 10 10 10 10 9 9 9 9 9 9 9 9 9 9 9 9 9 10 10 10 10 10 10 10 11
13 12 12 12 12 12 12 12 12 11 11 11 11 11 11 10 10 10 9 9 9 9 8 8 8 8 8 8 8 8 8 8 9 9 9 9 9 9 10 10 10 10 10
13 12 12 12 12 12 12 12 11 11 11 11 10 10 10 10 9 9 9 8 8 8 7 8 8 8 8 8 8 8 8 8 8 8 8 8 9 9 9 9 9 9 9
13 12 12 12 12 12 12 11 11 11 11 10 10 10 10 9 8 8 7 7 7 7 7 7 7 7 7 8 8 7 7 7 7 7 7 7 7 7 7 8 8 8 8
13 12 12 12 12 11 11 11 11 11 10 10 10 9 9 9 8 7 6 6 7 7 7 7 7 7 7 7 7 7 7 7 7 6 6 6 6 6 6 6 6 6 6
13 12 12 12 11 11 11 11 11 11 10 9 9 9 9 8 7 6 6 6 6 6 6 6 6 6 6 7 7 6 6 6 6 5 5 5 5 4 4 4 4 4 4
12 12 12 11 11 11 11 11 10 10 9 9 9 8 7 8 6 6 6 5 5 6 5 5 5 5 6 6 6 6 6 5 5 4 4 3 3 3 3 3 3 3 3
12 12 11 11 11 10 10 10 10 9 9 8 7 6 6 6 5 6 6 5 5 5 5 5 5 5 5 5 5 5 4 4 4 3 2 2 1 1 1 1 1 2 2
11 11 11 10 10 10 10 10 9 8 8 7 6 5 5 6 4 4 4 4 3 4 4 4 4 4 4 3 3 3 3 3 2 1 0 -0 -0 -0 -0 0 0 1 1
11 10 10 10 10 10 9 9 8 7 7 6 5 5 4 3 2 2 2 2 1 2 2 2 3 3 3 2 1 1 1 0 -0 -1 -1 -2 -2 -2 -1 -1 -1 -0 0
10 10 10 10 9 9 9 8 7 6 6 5 4 4 2 1 0 -0 1 1 0 -0 -0 0 1 1 1 -0 -1 -1 -2 -2 -2 -3 -3 -3 -3 -3 -2 -2 -2 -1 -1
9 9 9 9 9 8 8 7 6 6 5 4 4 3 2 0 -0 -1 -1 -1 -1 -1 -1 -1 -1 -1 -2 -2 -2 -3 -3 -3 -3 -4 -5 -4 -4 -4 -3 -3 -3 -2 -2
9 9 9 9 8 7 7 6 5 5 4 4 3 2 1 1 -0 -1 -2 -3 -3 -2 -2 -3 -3 -3 -3 -4 -4 -4 -5 -4 -5 -5 -5 -5 -5 -5 -5 -4 -4 -4 -3
9 9 8 8 7 7 6 5 5 4 3 3 2 2 1 0 -0 -2 -3 -4 -4 -3 -2 -2 -3 -4 -5 -6 -6 -6 -6 -6 -6 -6 -6 -6 -6 -6 -6 -6 -5 -5 -5
8 8 8 7 6 6 5 4 4 3 3 2 1 1 0 -0 -1 -2 -3 -4 -5 -4 -4 -4 -4 -5 -5 -6 -7 -7 -7 -7 -7 -7 -7 -7 -7 -7 -6 -6 -6 -6 -5
8 7 7 6 6 5 4 4 3 2 2 1 1 0 -1 -1 -2 -3 -4 -5 -5 -6 -5 -5 -5 -6 -6 -7 -7 -7 -7 -7 -7 -7 -7 -7 -7 -7 -7 -7 -6 -6 -6
7 7 6 5 5 4 3 3 2 2 1 1 -0 -1 -1 -2 -3 -4 -5 -5 -6 -6 -6 -6 -6 -7 -7 -7 -7 -7 -7 -7 -7 -7 -7 -7 -7 -7 -7 -7 -7 -6 -6
7 6 5 4 4 3 3 2 2 1 1 0 -1 -1 -2 -3 -4 -5 -6 -6 -7 -7 -7 -7 -7 -7 -7 -7 -7 -7 -7 -7 -7 -7 -8 -7 -7 -7 -7 -7 -7 -7 -6
6 5 4 4 3 2 2 1 1 0 0 -1 -1 -2 -3 -4 -5 -6 -6 -7 -7 -8 -8 -8 -8 -7 -7 -7 -7 -7 -7 -8 -8 -8 -8 -8 -7 -7 -7 -7 -7 -7 -7
5 4 3 3 2 2 1 1 0 -0 -1 -1 -2 -3 -4 -5 -6 -7 -7 -8 -8 -8 -8 -8 -8 -8 -7 -7 -7 -7 -8 -8 -8 -8 -8 -8 -7 -7 -7 -7 -6 -6 -6
4 3 3 2 2 1 0 -0 -1 -1 -2 -2 -3 -4 -5 -5 -6 -7 -8 -8 -8 -8 -8 -8 -8 -8 -8 -8 -8 -8 -9 -9 -8 -8 -8 -8 -8 -7 -7 -7 -7 -6 -7
3 2 2 1 1 0 -0 -1 -1 -2 -2 -3 -4 -5 -6 -6 -7 -8 -8 -8 -9 -9 -8 -8 -8 -8 -8 -8 -8 -9 -9 -9 -9 -8 -8 -8 -8 -8 -7 -7 -6 -6 -6
2 2 1 1 0 -0 -1 -1 -2 -2 -3 -4 -4 -5 -6 -7 -8 -8 -9 -9 -9 -8 -8 -9 -9 -9 -9 -9 -9 -9 -9 -9 -9 -9 -9 -9 -8 -8 -7 -7 -6 -5 -5
1 1 0 0 -0 -1 -1 -2 -2 -3 -4 -4 -5 -6 -7 -8 -8 -9 -9 -9 -9 -9 -9 -9 -9 -9 -9 -9 -9 -9 -10 -10 -10 -9 -9 -9 -8 -8 -7 -7 -5 -5 -4
1 0 -0 -0 -1 -1 -2 -2 -3 -4 -5 -6 -6 -7 -8 -9 -9 -9 -9 -9 -9 -9 -9 -9 -9 -9 -9 -9 -9 -10 -10 -10 -10 -9 -9 -9 -9 -9 -8 -7 -5 -5 -4
-0 -0 -1 -1 -2 -2 -3 -3 -4 -5 -7 -7 -8 -8 -8 -9 -9 -9 -9 -9 -9 -9 -9 -9 -9 -9 -8 -8 -9 -9 -10 -10 -11 -11 -9 -10 -10 -10 -10 -8 -6 -5 -4
Wind_Speed
6 5 4 4 3 3 3 3 2 3 3 3 4 4 4 3 2 1 6 13 13 13 13 13 13 13 13 13 13 13 13 14 14 15 15 16 16 16 16 16 16 16 15
6 6 5 4 4 4 3 3 3 3 3 3 3 3 3 2 0 1 4 9 14 14 14 14 14 13 13 13 13 14 14 15 16 16 16 17 17 17 17 18 18 18 18
8 7 5 5 5 5 5 4 4 3 3 2 2 3 3 1 2 3 4 4 7 11 13 14 14 14 13 14 14 15 15 16 17 17 17 18 18 18 18 19 19 20 20
10 8 6 5 6 5 4 3 3 3 3 3 3 3 2 1 3 3 4 3 4 4 7 11 13 13 13 14 14 15 16 17 17 18 18 19 19 19 20 20 20 21 21
11 9 7 7 7 5 4 4 4 3 4 4 4 3 2 2 3 3 3 2 3 3 5 8 10 11 12 14 15 16 17 17 18 19 19 20 20 21 21 22 22 23 23
12 11 8 8 7 5 4 4 5 4 4 5 4 3 1 1 3 3 2 2 1 3 6 10 11 11 12 14 15 16 17 18 19 20 20 21 22 23 23 24 24 25 25
13 11 8 7 6 5 5 4 4 4 5 5 4 2 1 2 3 3 3 4 3 5 8 11 12 12 11 14 13 15 17 19 20 21 22 23 24 25 25 26 27 27 28
12 10 9 8 7 6 6 5 4 3 4 5 4 4 3 2 2 3 4 4 5 6 9 12 13 13 13 12 12 16 17 19 22 23 24 25 26 27 28 29 29 30 30
12 11 11 9 7 6 5 5 5 4 3 4 5 4 3 3 5 4 4 5 6 7 9 12 14 15 14 12 13 14 18 21 23 24 26 28 29 29 30 30 31 31 32
12 12 12 10 8 6 6 5 5 4 3 3 2 3 2 3 4 5 5 5 7 9 11 10 13 14 13 13 14 18 19 21 24 27 29 30 30 31 31 32 32 33 33
11 11 11 9 8 6 6 5 4 3 3 2 2 2 2 3 5 5 8 9 9 9 10 12 12 12 13 14 15 16 20 24 28 29 30 30 31 32 33 33 34 34 34
8 10 10 9 8 6 6 5 4 3 2 1 1 2 3 4 5 6 8 12 13 11 13 11 10 10 13 16 17 20 24 28 30 30 31 31 32 33 33 34 34 34 35
9 10 8 8 7 7 6 4 3 2 1 1 2 3 4 5 6 7 10 12 15 14 11 8 9 11 14 15 16 22 27 30 31 31 33 34 34 34 34 34 34 35 35
10 10 9 8 8 7 5 4 2 1 1 3 4 4 5 6 6 7 9 12 14 12 12 14 13 11 11 15 20 25 25 28 30 33 34 36 36 35 35 34 34 34 34
10 11 10 8 7 6 4 2 1 1 2 3 4 5 6 6 7 7 9 10 11 15 17 15 10 11 15 18 21 23 24 28 31 33 35 35 35 35 35 35 35 35 34
12 11 9 8 7 5 3 1 1 2 3 4 5 7 7 7 7 8 9 10 11 15 17 13 16 17 17 17 23 24 24 29 30 31 32 33 34 35 35 35 35 34 34
12 10 9 7 6 4 2 1 2 3 4 5 6 7 8 9 9 9 9 10 12 13 18 19 16 18 21 21 19 21 22 22 22 29 31 33 34 34 34 34 34 34 34
11 9 8 6 4 2 1 2 3 4 6 7 8 8 9 9 11 11 10 12 13 14 17 22 19 18 21 21 21 21 18 18 20 26 30 32 33 33 33 33 33 34 34
10 8 7 5 3 1 1 3 4 6 7 8 9 9 10 11 12 11 13 13 13 14 15 18 20 18 18 18 20 20 20 18 18 22 26 28 30 31 32 33 33 33 33
9 8 6 4 2 1 2 4 6 7 8 9 9 10 11 12 13 14 14 15 15 16 17 17 18 18 18 19 18 18 18 17 17 17 21 22 25 29 30 31 32 32 32
8 7 5 3 1 1 3 6 7 8 10 10 10 10 11 13 16 15 14 16 17 16 16 16 17 18 18 18 17 17 18 18 18 17 17 16 17 18 20 24 26 28 29
7 5 3 1 1 2 5 8 9 10 10 11 11 12 12 14 15 19 21 22 21 20 19 18 17 19 21 20 18 17 18 19 19 14 17 19 17 18 17 17 24 30 31
6 4 2 1 2 3 6 9 10 11 11 11 12 12 12 12 17 15 19 22 22 24 23 20 21 21 21 20 20 21 20 20 20 18 18 20 18 19 17 18 29 31 32
4 3 1 1 3 4 7 10 12 11 10 11 12 13 14 15 15 18 19 19 19 19 20 18 18 20 20 20 20 20 20 20 19 17 16 19 19 18 18 18 27 30 30
3 1 1 2 4 5 6 10 12 10 10 12 13 13 15 16 19 22 20 19 20 18 18 21 23 25 28 28 22 15 16 15 17 17 15 13 15 18 18 18 18 23 26
2 1 1 3 4 6 7 11 13 9 10 11 12 14 16 17 21 24 19 19 20 18 18 19 20 20 19 19 20 14 13 13 15 12 9 8 13 13 11 11 13 16 19
Wind_Direction
178 166 159 145 132 116 114 94 73 61 39 27 19 7 356 353 6 79 83 59 58 58 50 40 30 20 12 5 359 354 350 345 341 338 334 331 328 325 322 318 314 311 307
172 163 154 137 122 112 99 92 79 67 43 20 8 1 349 346 48 124 112 83 64 57 48 36 25 14 4 355 348 343 339 334 330 327 323 320 317 314 311 309 306 303 299
167 156 144 134 122 116 110 96 83 58 39 12 358 355 340 313 159 141 124 101 81 63 48 33 19 8 357 349 341 335 330 326 323 320 317 314 310 308 306 303 301 299 296
157 144 135 127 124 118 106 88 65 49 28 358 345 344 317 226 184 150 136 106 70 45 41 25 10 0 350 341 334 328 324 320 317 314 312 309 306 303 301 298 297 296 294
148 136 125 122 124 112 98 86 63 38 19 359 341 334 318 201 168 171 156 118 68 23 360 359 351 348 340 333 328 324 320 317 315 311 309 306 303 300 298 295 293 291 289
137 127 120 120 117 111 103 94 80 54 24 352 332 337 13 177 192 185 204 208 295 332 338 343 339 334 327 324 323 321 319 317 314 310 307 304 302 299 296 294 291 289 287
130 124 121 118 113 108 104 96 82 57 32 0 341 331 195 197 214 205 252 266 278 303 319 334 334 328 319 318 314 317 318 316 312 310 306 303 300 298 295 293 290 288 286
126 124 124 119 115 112 103 87 74 62 43 22 2 335 317 219 185 224 273 273 290 303 319 327 324 319 315 312 309 311 312 313 311 308 304 302 300 297 294 291 288 286 284
121 122 120 117 116 114 103 88 74 62 50 41 26 5 333 316 315 273 272 283 295 308 315 316 313 312 308 304 305 307 309 310 308 306 304 302 298 295 292 290 288 286 284
118 121 119 118 116 113 110 99 82 70 50 35 41 21 343 317 299 303 283 279 293 301 303 304 307 304 300 302 301 301 304 306 307 305 302 299 296 294 292 290 289 287 285
119 122 121 121 117 114 111 106 95 74 57 29 1 334 302 284 270 284 295 303 302 299 301 300 298 296 298 301 302 301 306 306 305 302 300 298 297 295 293 292 290 288 287
125 126 127 124 121 119 117 110 101 91 64 50 307 297 299 295 297 290 292 301 304 304 303 294 289 292 298 303 301 305 306 305 303 301 300 298 297 296 295 294 292 290 288
139 140 135 129 125 123 119 115 110 113 145 265 284 290 284 280 288 286 288 297 300 301 296 287 283 289 295 297 299 304 303 301 300 300 300 299 299 298 296 294 292 290 288
140 140 134 131 129 127 124 125 138 172 231 264 282 286 284 283 283 283 289 300 303 299 295 297 301 297 296 295 295 299 296 296 297 297 298 298 298 297 296 294 292 289 287
137 138 136 134 130 127 127 142 176 238 264 280 288 288 286 287 285 285 286 288 294 300 303 304 301 302 301 298 296 295 294 294 296 295 295 295 295 295 294 293 291 289 287
137 139 139 135 133 133 143 178 233 267 280 287 292 293 295 291 291 289 287 286 284 288 292 295 302 302 303 298 296 296 295 295 293 292 293 293 293 293 293 292 290 288 286
139 139 138 137 137 141 159 223 271 279 287 294 294 295 297 298 296 293 292 289 287 287 290 296 300 302 302 301 300 299 297 296 294 294 294 295 294 293 292 291 290 288 286
135 135 136 135 135 145 201 272 286 288 293 297 300 299 299 301 297 297 295 292 290 289 291 296 300 303 303 303 302 301 300 298 295 295 296 295 294 293 292 290 289 288 286
132 133 135 134 138 157 256 285 292 295 295 296 298 299 300 302 301 300 299 295 293 292 290 293 298 301 301 302 304 303 302 301 299 297 297 295 293 292 292 291 290 289 287
133 133 131 131 139 209 273 290 295 296 296 296 295 295 296 299 301 302 299 297 296 297 295 295 296 300 302 305 306 307 307 306 303 302 297 294 294 295 293 291 289 287 286
127 130 133 137 165 267 296 308 305 301 300 299 297 296 295 297 297 297 297 299 300 297 296 296 298 301 303 307 307 309 306 306 302 302 301 301 300 296 295 291 288 286 285
129 134 137 149 263 304 315 309 312 306 301 299 300 301 301 298 299 300 300 299 295 293 295 297 298 299 300 303 307 305 304 304 304 306 304 301 300 295 294 291 290 291 290
135 140 145 229 301 318 315 315 316 308 302 300 301 303 303 302 304 302 300 298 294 292 291 293 294 294 297 301 302 301 300 299 298 300 302 298 299 296 296 293 294 293 292
139 144 162 301 305 314 320 318 317 308 301 299 301 303 303 304 304 306 303 301 298 296 294 293 290 291 292 294 295 296 297 296 293 292 293 295 299 298 300 297 295 292 291
141 151 257 298 306 313 320 319 322 312 303 303 303 301 301 300 303 307 307 305 303 301 299 296 291 289 289 292 294 294 294 296 296 298 298 290 295 303 300 294 291 293 295
141 200 276 294 302 311 318 321 324 312 308 308 305 303 302 304 308 310 310 308 305 306 307 304 299 295 294 292 292 286 287 290 294 298 296 297 298 309 305 291 296 301 300
Height
1523 1524 1525 1525 1525 1525 1524 1524 1523 1522 1521 1520 1518 1517 1515 1514 1513 1511 1509 1508 1507 1505 1504 1502 1501 1500 1499 1497 1496 1494 1493 1492 1490 1489 1488 1487 1486 1486 1485 1485 1484 1484 1484
1521 1522 1523 1523 1523 1523 1523 1522 1521 1520 1519 1517 1516 1514 1512 1511 1509 1508 1506 1505 1503 1502 1501 1500 1498 1497 1495 1494 1492 1490 1489 1487 1485 1484 1483 1481 1480 1479 1479 1478 1478 1477 1477
1519 1520 1521 1522 1522 1521 1521 1520 1519 1518 1516 1515 1513 1511 1509 1507 1505 1504 1503 1502 1501 1499 1498 1497 1495 1493 1491 1490 1488 1486 1484 1482 1480 1478 1476 1475 1474 1472 1471 1470 1470 1469 1469
1516 1518 1519 1519 1520 1520 1519 1518 1517 1516 1514 1512 1510 1508 1506 1504 1503 1501 1500 1499 1498 1497 1495 1493 1492 1489 1487 1485 1482 1480 1478 1476 1474 1472 1470 1468 1467 1465 1464 1463 1462 1461 1460
1514 1515 1516 1517 1518 1518 1517 1516 1515 1514 1512 1510 1508 1505 1503 1501 1499 1498 1498 1497 1495 1494 1492 1490 1488 1485 1483 1480 1477 1475 1472 1470 1467 1465 1463 1461 1459 1458 1456 1455 1454 1453 1452
1510 1512 1514 1515 1515 1516 1515 1514 1513 1511 1509 1507 1505 1503 1500 1498 1497 1496 1496 1494 1493 1491 1489 1486 1484 1481 1478 1475 1472 1469 1466 1463 1461 1458 1456 1454 1452 1450 1448 1447 1445 1444 1443
1507 1509 1511 1512 1513 1513 1513 1512 1511 1509 1507 1505 1503 1501 1498 1496 1495 1494 1493 1492 1490 1488 1485 1483 1480 1476 1472 1469 1466 1463 1460 1457 1454 1451 1449 1447 1444 1442 1440 1439 1437 1436 1434
1504 1506 1508 1510 1511 1511 1511 1510 1508 1506 1504 1502 1501 1499 1499 1498 1494 1492 1491 1489 1487 1485 1482 1479 1475 1471 1467 1463 1459 1456 1453 1449 1446 1443 1441 1439 1436 1434 1432 1430 1428 1427 1425
1501 1503 1506 1507 1508 1509 1508 1507 1506 1504 1502 1501 1499 1499 1498 1497 1494 1490 1487 1485 1482 1480 1477 1473 1470 1466 1461 1457 1452 1449 1445 1441 1438 1435 1433 1430 1427 1425 1423 1421 1419 1417 1416
1498 1501 1503 1505 1506 1506 1506 1504 1503 1502 1501 1499 1497 1496 1495 1493 1491 1487 1483 1480 1477 1473 1469 1466 1462 1459 1454 1450 1445 1441 1437 1433 1429 1426 1423 1420 1418 1415 1413 1411 1409 1407 1405
1495 1498 1501 1502 1503 1503 1503 1502 1500 1499 1498 1497 1495 1493 1491 1489 1487 1485 1479 1475 1472 1468 1463 1459 1455 1452 1448 1443 1438 1434 1429 1424 1420 1417 1414 1411 1408 1406 1403 1400 1398 1396 1393
1492 1496 1498 1500 1500 1500 1500 1499 1498 1496 1495 1494 1492 1490 1488 1486 1484 1481 1476 1470 1465 1461 1457 1452 1449 1445 1441 1436 1432 1426 1421 1416 1412 1408 1405 1402 1399 1395 1393 1390 1387 1384 1382
1490 1493 1496 1497 1498 1497 1497 1496 1495 1494 1492 1490 1488 1486 1484 1481 1479 1476 1471 1465 1460 1455 1451 1447 1443 1439 1434 1430 1425 1419 1413 1408 1404 1399 1395 1392 1388 1385 1381 1378 1375 1373 1371
1488 1491 1493 1494 1495 1495 1494 1493 1492 1491 1489 1487 1485 1482 1480 1477 1474 1471 1467 1462 1454 1448 1446 1443 1439 1434 1428 1423 1418 1412 1406 1401 1396 1391 1387 1382 1378 1374 1370 1367 1364 1362 1359
1487 1489 1491 1492 1492 1492 1491 1490 1489 1487 1486 1483 1481 1478 1475 1472 1469 1466 1462 1459 1454 1443 1435 1434 1431 1427 1423 1417 1411 1405 1400 1394 1389 1383 1378 1373 1368 1364 1360 1357 1353 1350 1348
1485 1487 1488 1489 1489 1489 1488 1487 1486 1484 1482 1479 1477 1474 1471 1468 1464 1461 1457 1453 1449 1442 1431 1426 1424 1420 1415 1410 1405 1399 1393 1386 1380 1375 1369 1364 1359 1354 1350 1346 1342 1339 1336
1483 1485 1486 1487 1487 1486 1486 1484 1483 1481 1478 1475 1472 1469 1466 1463 1459 1455 1451 1447 1443 1438 1427 1418 1417 1412 1407 1402 1396 1391 1385 1379 1372 1366 1361 1355 1350 1345 1340 1336 1332 1328 1325
1481 1483 1484 1484 1484 1484 1483 1481 1479 1477 1474 1471 1468 1464 1461 1457 1453 1450 1445 1441 1436 1432 1424 1413 1408 1404 1400 1395 1389 1383 1378 1372 1365 1358 1352 1346 1340 1335 1330 1325 1321 1317 1313
1479 1480 1481 1482 1481 1480 1479 1478 1476 1473 1470 1467 1463 1459 1455 1452 1448 1444 1439 1435 1430 1425 1420 1411 1402 1398 1393 1388 1382 1376 1370 1364 1358 1351 1344 1338 1331 1326 1320 1315 1310 1305 1301
1477 1478 1479 1479 1478 1477 1476 1474 1471 1468 1465 1462 1458 1454 1450 1446 1442 1438 1434 1429 1425 1420 1414 1407 1399 1392 1387 1382 1377 1369 1361 1356 1349 1343 1336 1330 1324 1317 1311 1305 1299 1294 1289
1475 1476 1476 1476 1475 1474 1472 1469 1467 1463 1460 1456 1452 1448 1444 1440 1436 1432 1428 1424 1419 1414 1408 1402 1395 1388 1381 1376 1371 1364 1356 1348 1341 1337 1329 1322 1316 1308 1301 1295 1289 1284 1279
1473 1474 1474 1473 1472 1470 1468 1465 1462 1458 1455 1451 1447 1442 1438 1434 1430 1426 1422 1418 1414 1409 1403 1397 1390 1384 1377 1371 1365 1359 1351 1343 1333 1330 1323 1313 1309 1300 1293 1287 1280 1275 1270
1471 1471 1471 1470 1469 1466 1464 1460 1457 1453 1449 1445 1441 1437 1433 1429 1424 1419 1415 1411 1407 1402 1398 1393 1385 1378 1372 1366 1360 1352 1346 1339 1330 1323 1316 1304 1300 1292 1285 1278 1272 1266 1260
1469 1469 1468 1467 1465 1462 1459 1455 1451 1447 1444 1440 1436 1432 1427 1423 1418 1414 1409 1404 1399 1395 1390 1385 1378 1371 1365 1360 1355 1348 1340 1331 1323 1318 1313 1301 1291 1284 1276 1269 1262 1256 1250
1467 1466 1465 1463 1461 1458 1454 1451 1446 1442 1438 1435 1431 1427 1422 1418 1413 1409 1404 1397 1391 1386 1382 1376 1370 1364 1358 1353 1348 1341 1334 1326 1316 1309 1305 1297 1286 1276 1266 1258 1252 1247 1242
1464 1463 1461 1459 1456 1453 1450 1446 1442 1437 1433 1430 1426 1421 1417 1412 1407 1403 1398 1391 1385 1379 1373 1367 1362 1357 1351 1345 1341 1335 1329 1321 1313 1303 1296 1291 1282 1274 1258 1248 1245 1240 1234